QPF
0.02 0.03 0.03 0.03 0.03 0.02 0.02 0.02 0.03 0.04 0.05 0.04 0.04 0.04 0.03 0.03 0.02 0.02 0.02 0.02 0.02 0.02 0.03 0.03 0.03 0.03 0.02 0.01 0.01 0.02 0.02 0.05 0.07 0.07 0.04 0.03 0.03 0.06 0.07 0.07 0.05 0.04 0.04
0.02 0.03 0.04 0.03 0.04 0.03 0.03 0.03 0.03 0.03 0.03 0.02 0.02 0.02 0.02 0.02 0.02 0.02 0.02 0.03 0.02 0.02 0.03 0.03 0.03 0.02 0.02 0.02 0.02 0.02 0.03 0.04 0.05 0.06 0.07 0.05 0.04 0.05 0.05 0.05 0.04 0.03 0.03
0.02 0.03 0.03 0.02 0.03 0.04 0.03 0.03 0.02 0.02 0.02 0.02 0.03 0.02 0.01 0.01 0.02 0.01 0.02 0.02 0.03 0.02 0.02 0.02 0.02 0.01 0.01 0.01 0.02 0.02 0.02 0.04 0.04 0.04 0.06 0.06 0.05 0.04 0.05 0.05 0.04 0.05 0.05
0.03 0.02 0.02 0.02 0.02 0.03 0.04 0.02 0.01 0.01 0.02 0.01 0.02 0.02 0.02 0.01 0.01 0.01 0.02 0.03 0.04 0.04 0.04 0.03 0.02 0.01 0.01 0.01 0.01 0.01 0.01 0.02 0.03 0.03 0.04 0.05 0.04 0.04 0.03 0.04 0.03 0.04 0.04
0.03 0.02 0.01 0.02 0.03 0.03 0.03 0.02 0.01 0.01 0.01 0.01 0.00 0.01 0.02 0.02 0.02 0.02 0.02 0.02 0.02 0.03 0.04 0.04 0.03 0.02 0.02 0.02 0.02 0.01 0.01 0.01 0.02 0.03 0.03 0.03 0.03 0.03 0.03 0.03 0.02 0.03 0.02
0.02 0.02 0.02 0.02 0.02 0.03 0.02 0.01 0.01 0.01 0.01 0.01 0.01 0.01 0.01 0.01 0.01 0.01 0.02 0.02 0.02 0.02 0.03 0.03 0.03 0.03 0.03 0.02 0.02 0.02 0.01 0.01 0.01 0.02 0.03 0.03 0.02 0.03 0.03 0.02 0.02 0.02 0.03
0.02 0.02 0.02 0.02 0.01 0.01 0.01 0.01 0.01 0.01 0.00 0.00 0.00 0.01 0.01 0.00 0.01 0.01 0.01 0.01 0.01 0.02 0.02 0.03 0.02 0.02 0.02 0.02 0.02 0.02 0.01 0.01 0.01 0.02 0.02 0.02 0.02 0.02 0.02 0.02 0.02 0.02 0.02
0.02 0.03 0.03 0.02 0.01 0.01 0.01 0.01 0.01 0.01 0.01 0.00 0.00 0.00 0.00 0.00 0.00 0.01 0.01 0.00 0.00 0.01 0.02 0.03 0.03 0.02 0.01 0.01 0.01 0.02 0.02 0.01 0.02 0.03 0.02 0.01 0.01 0.02 0.01 0.01 0.01 0.01 0.01
0.01 0.01 0.02 0.02 0.01 0.01 0.01 0.01 0.01 0.01 0.01 0.01 0.01 0.00 0.00 0.00 0.00 0.00 0.00 0.00 0.00 0.00 0.01 0.03 0.03 0.02 0.01 0.01 0.01 0.02 0.02 0.02 0.04 0.04 0.03 0.03 0.03 0.03 0.03 0.02 0.02 0.01 0.01
0.01 0.01 0.02 0.02 0.02 0.02 0.02 0.02 0.01 0.01 0.01 0.01 0.01 0.00 0.00 0.00 0.00 0.00 0.00 0.00 0.01 0.00 0.01 0.02 0.03 0.03 0.02 0.02 0.01 0.01 0.01 0.01 0.02 0.03 0.03 0.03 0.03 0.02 0.02 0.02 0.02 0.01 0.01
0.01 0.01 0.01 0.01 0.02 0.02 0.02 0.02 0.02 0.02 0.01 0.01 0.00 0.00 0.00 0.00 0.00 0.00 0.00 0.00 0.00 0.01 0.01 0.01 0.02 0.02 0.02 0.02 0.02 0.01 0.01 0.01 0.02 0.02 0.02 0.03 0.03 0.02 0.01 0.01 0.01 0.01 0.01
0.01 0.01 0.01 0.01 0.02 0.01 0.01 0.01 0.01 0.02 0.01 0.00 0.00 0.00 0.01 0.00 0.00 0.00 0.00 0.00 0.00 0.00 0.00 0.01 0.02 0.02 0.02 0.02 0.02 0.02 0.02 0.01 0.01 0.01 0.01 0.02 0.02 0.02 0.01 0.01 0.01 0.00 0.00
0.02 0.01 0.01 0.01 0.01 0.01 0.02 0.01 0.01 0.01 0.01 0.01 0.00 0.01 0.01 0.00 0.00 0.00 0.00 0.00 0.00 0.00 0.01 0.01 0.01 0.01 0.01 0.01 0.02 0.03 0.03 0.02 0.01 0.01 0.01 0.01 0.02 0.01 0.01 0.01 0.00 0.00 0.00
0.01 0.01 0.01 0.01 0.01 0.01 0.01 0.01 0.01 0.01 0.01 0.01 0.01 0.01 0.01 0.01 0.01 0.00 0.00 0.00 0.00 0.00 0.01 0.01 0.01 0.01 0.01 0.01 0.01 0.02 0.02 0.01 0.01 0.01 0.01 0.01 0.01 0.01 0.01 0.01 0.01 0.00 0.00
0.00 0.01 0.01 0.01 0.01 0.01 0.01 0.01 0.01 0.01 0.01 0.01 0.01 0.01 0.01 0.02 0.01 0.00 0.00 0.00 0.00 0.00 0.00 0.01 0.01 0.01 0.01 0.01 0.01 0.01 0.01 0.01 0.01 0.00 0.00 0.00 0.01 0.01 0.01 0.01 0.01 0.01 0.01
0.00 0.00 0.00 0.01 0.01 0.00 0.00 0.00 0.00 0.00 0.01 0.01 0.02 0.01 0.01 0.01 0.01 0.01 0.01 0.00 0.00 0.00 0.00 0.01 0.01 0.01 0.01 0.01 0.01 0.01 0.01 0.01 0.01 0.00 0.00 0.00 0.00 0.01 0.01 0.01 0.01 0.00 0.01
0.00 0.00 0.00 0.00 0.01 0.01 0.00 0.00 0.00 0.00 0.00 0.00 0.01 0.02 0.02 0.01 0.01 0.01 0.00 0.00 0.00 0.00 0.00 0.00 0.01 0.01 0.01 0.00 0.00 0.01 0.01 0.01 0.01 0.01 0.00 0.00 0.00 0.00 0.00 0.00 0.00 0.00 0.00
0.00 0.00 0.00 0.00 0.01 0.01 0.00 0.00 0.00 0.00 0.00 0.00 0.00 0.00 0.01 0.01 0.01 0.01 0.01 0.00 0.00 0.00 0.01 0.01 0.01 0.01 0.01 0.00 0.00 0.00 0.01 0.01 0.01 0.01 0.00 0.00 0.00 0.01 0.01 0.00 0.00 0.00 0.00
0.00 0.00 0.00 0.00 0.00 0.01 0.01 0.00 0.00 0.00 0.00 0.00 0.00 0.00 0.00 0.01 0.01 0.01 0.01 0.01 0.01 0.00 0.00 0.01 0.01 0.01 0.01 0.01 0.01 0.01 0.01 0.01 0.01 0.01 0.01 0.01 0.01 0.01 0.01 0.01 0.00 0.00 0.00
0.00 0.00 0.00 0.00 0.00 0.00 0.00 0.00 0.00 0.00 0.00 0.00 0.00 0.00 0.00 0.01 0.02 0.02 0.03 0.03 0.02 0.02 0.01 0.01 0.01 0.00 0.00 0.01 0.01 0.01 0.01 0.01 0.01 0.01 0.01 0.01 0.01 0.01 0.01 0.01 0.01 0.01 0.00
0.00 0.00 0.00 0.00 0.00 0.00 0.00 0.00 0.00 0.00 0.00 0.00 0.00 0.00 0.00 0.01 0.01 0.02 0.03 0.03 0.03 0.03 0.02 0.01 0.01 0.01 0.01 0.01 0.01 0.01 0.01 0.01 0.01 0.01 0.01 0.01 0.01 0.01 0.01 0.01 0.01 0.01 0.01
0.00 0.00 0.00 0.00 0.00 0.00 0.00 0.00 0.00 0.00 0.00 0.00 0.00 0.00 0.00 0.00 0.01 0.01 0.02 0.02 0.03 0.03 0.02 0.02 0.01 0.01 0.01 0.01 0.01 0.01 0.01 0.01 0.01 0.00 0.00 0.01 0.01 0.01 0.01 0.01 0.01 0.02 0.02
0.00 0.00 0.00 0.00 0.00 0.00 0.00 0.00 0.00 0.00 0.00 0.00 0.00 0.00 0.00 0.00 0.00 0.01 0.02 0.02 0.03 0.03 0.03 0.03 0.02 0.02 0.02 0.02 0.02 0.01 0.01 0.01 0.01 0.00 0.00 0.01 0.01 0.01 0.01 0.01 0.01 0.02 0.02
0.00 0.00 0.00 0.00 0.00 0.00 0.00 0.00 0.00 0.00 0.00 0.00 0.00 0.00 0.00 0.00 0.01 0.01 0.01 0.02 0.03 0.03 0.03 0.03 0.03 0.03 0.03 0.03 0.03 0.02 0.01 0.01 0.01 0.01 0.01 0.01 0.01 0.01 0.01 0.01 0.01 0.01 0.01
0.00 0.00 0.00 0.00 0.00 0.00 0.00 0.00 0.00 0.00 0.00 0.00 0.00 0.00 0.00 0.00 0.01 0.01 0.02 0.02 0.03 0.04 0.04 0.04 0.05 0.04 0.02 0.02 0.02 0.02 0.01 0.01 0.01 0.01 0.01 0.01 0.01 0.00 0.00 0.00 0.01 0.01 0.01
0.00 0.00 0.00 0.00 0.00 0.00 0.00 0.00 0.00 0.00 0.00 0.00 0.00 0.01 0.01 0.00 0.01 0.01 0.02 0.03 0.04 0.04 0.04 0.04 0.06 0.05 0.04 0.03 0.02 0.02 0.01 0.01 0.01 0.01 0.01 0.01 0.01 0.01 0.01 0.01 0.00 0.00 0.01
MSLP
1020.24 1020.21 1020.15 1020.06 1019.92 1019.73 1019.52 1019.29 1019.09 1018.93 1018.84 1018.81 1018.84 1018.91 1019.00 1019.08 1019.14 1019.16 1019.16 1019.16 1019.19 1019.27 1019.43 1019.68 1020.00 1020.38 1020.79 1021.18 1021.52 1021.78 1021.95 1022.04 1022.06 1022.03 1022.00 1021.97 1021.97 1021.99 1022.03 1022.06 1022.07 1022.03 1021.92
1021.68 1021.59 1021.48 1021.33 1021.15 1020.92 1020.67 1020.39 1020.12 1019.90 1019.72 1019.62 1019.57 1019.56 1019.58 1019.60 1019.58 1019.55 1019.49 1019.43 1019.40 1019.42 1019.53 1019.74 1020.03 1020.40 1020.80 1021.21 1021.58 1021.89 1022.11 1022.24 1022.30 1022.32 1022.31 1022.30 1022.32 1022.35 1022.41 1022.47 1022.51 1022.51 1022.45
1023.03 1022.87 1022.70 1022.51 1022.29 1022.04 1021.75 1021.44 1021.14 1020.86 1020.62 1020.45 1020.32 1020.24 1020.19 1020.13 1020.06 1019.96 1019.85 1019.74 1019.65 1019.63 1019.68 1019.83 1020.08 1020.41 1020.79 1021.19 1021.56 1021.89 1022.14 1022.31 1022.41 1022.46 1022.48 1022.51 1022.55 1022.61 1022.69 1022.78 1022.86 1022.92 1022.92
1024.20 1023.99 1023.76 1023.54 1023.29 1023.02 1022.72 1022.41 1022.08 1021.78 1021.50 1021.27 1021.08 1020.94 1020.81 1020.70 1020.57 1020.42 1020.27 1020.11 1019.98 1019.90 1019.89 1019.98 1020.16 1020.43 1020.76 1021.12 1021.47 1021.79 1022.04 1022.24 1022.36 1022.45 1022.50 1022.56 1022.63 1022.72 1022.84 1022.96 1023.09 1023.20 1023.26
1025.18 1024.91 1024.64 1024.38 1024.12 1023.85 1023.57 1023.27 1022.95 1022.64 1022.34 1022.07 1021.84 1021.64 1021.46 1021.29 1021.11 1020.93 1020.73 1020.54 1020.37 1020.24 1020.17 1020.19 1020.30 1020.48 1020.73 1021.02 1021.32 1021.59 1021.83 1022.02 1022.16 1022.27 1022.35 1022.44 1022.54 1022.66 1022.81 1022.99 1023.16 1023.32 1023.44
1025.97 1025.64 1025.34 1025.06 1024.80 1024.56 1024.30 1024.03 1023.74 1023.44 1023.14 1022.85 1022.58 1022.33 1022.11 1021.89 1021.68 1021.46 1021.24 1021.01 1020.81 1020.63 1020.51 1020.45 1020.46 1020.55 1020.70 1020.89 1021.10 1021.32 1021.51 1021.68 1021.82 1021.93 1022.04 1022.15 1022.28 1022.44 1022.63 1022.84 1023.05 1023.26 1023.44
1026.60 1026.24 1025.92 1025.63 1025.39 1025.16 1024.95 1024.72 1024.46 1024.18 1023.89 1023.59 1023.29 1023.01 1022.74 1022.48 1022.23 1021.98 1021.73 1021.48 1021.24 1021.02 1020.84 1020.70 1020.62 1020.60 1020.63 1020.72 1020.83 1020.96 1021.10 1021.23 1021.35 1021.47 1021.59 1021.72 1021.88 1022.07 1022.29 1022.54 1022.79 1023.05 1023.28
1027.15 1026.77 1026.42 1026.14 1025.91 1025.72 1025.54 1025.35 1025.13 1024.88 1024.59 1024.27 1023.95 1023.63 1023.32 1023.02 1022.73 1022.45 1022.17 1021.90 1021.63 1021.36 1021.12 1020.91 1020.73 1020.61 1020.53 1020.50 1020.52 1020.56 1020.63 1020.71 1020.81 1020.92 1021.05 1021.21 1021.39 1021.61 1021.85 1022.13 1022.42 1022.71 1022.99
1027.66 1027.26 1026.91 1026.63 1026.42 1026.25 1026.10 1025.93 1025.74 1025.49 1025.20 1024.88 1024.52 1024.16 1023.81 1023.47 1023.14 1022.82 1022.51 1022.21 1021.91 1021.60 1021.31 1021.03 1020.78 1020.56 1020.38 1020.25 1020.17 1020.13 1020.13 1020.17 1020.24 1020.35 1020.48 1020.65 1020.86 1021.09 1021.37 1021.67 1021.99 1022.32 1022.63
1028.17 1027.77 1027.41 1027.13 1026.92 1026.75 1026.61 1026.46 1026.27 1026.02 1025.72 1025.37 1024.98 1024.58 1024.18 1023.79 1023.42 1023.07 1022.73 1022.40 1022.06 1021.73 1021.39 1021.06 1020.74 1020.45 1020.19 1019.98 1019.81 1019.70 1019.65 1019.64 1019.69 1019.78 1019.92 1020.10 1020.32 1020.58 1020.88 1021.20 1021.55 1021.90 1022.24
1028.69 1028.28 1027.92 1027.62 1027.40 1027.22 1027.07 1026.90 1026.70 1026.43 1026.11 1025.73 1025.31 1024.87 1024.42 1023.99 1023.58 1023.20 1022.83 1022.47 1022.11 1021.74 1021.38 1021.01 1020.64 1020.30 1019.98 1019.70 1019.48 1019.31 1019.20 1019.16 1019.18 1019.26 1019.39 1019.58 1019.81 1020.08 1020.39 1020.74 1021.10 1021.47 1021.85
1029.19 1028.77 1028.40 1028.08 1027.84 1027.63 1027.45 1027.25 1027.02 1026.72 1026.37 1025.96 1025.51 1025.04 1024.56 1024.10 1023.66 1023.24 1022.84 1022.46 1022.08 1021.69 1021.30 1020.91 1020.51 1020.13 1019.77 1019.45 1019.18 1018.96 1018.81 1018.73 1018.72 1018.78 1018.90 1019.07 1019.31 1019.58 1019.90 1020.26 1020.64 1021.03 1021.43
1029.62 1029.20 1028.81 1028.48 1028.20 1027.96 1027.74 1027.50 1027.23 1026.91 1026.53 1026.10 1025.63 1025.14 1024.64 1024.15 1023.69 1023.25 1022.83 1022.42 1022.02 1021.62 1021.22 1020.80 1020.39 1019.98 1019.59 1019.23 1018.91 1018.66 1018.46 1018.34 1018.29 1018.31 1018.40 1018.56 1018.78 1019.05 1019.37 1019.73 1020.12 1020.54 1020.96
1029.94 1029.53 1029.14 1028.79 1028.48 1028.20 1027.94 1027.66 1027.36 1027.01 1026.61 1026.17 1025.69 1025.20 1024.69 1024.20 1023.72 1023.26 1022.82 1022.40 1021.98 1021.56 1021.13 1020.70 1020.27 1019.84 1019.42 1019.02 1018.67 1018.37 1018.13 1017.96 1017.85 1017.83 1017.88 1018.00 1018.19 1018.45 1018.76 1019.12 1019.51 1019.93 1020.37
1030.12 1029.73 1029.35 1028.99 1028.66 1028.36 1028.06 1027.76 1027.43 1027.07 1026.66 1026.22 1025.74 1025.25 1024.75 1024.25 1023.76 1023.29 1022.84 1022.39 1021.95 1021.50 1021.06 1020.60 1020.14 1019.69 1019.24 1018.81 1018.41 1018.06 1017.77 1017.54 1017.38 1017.29 1017.29 1017.37 1017.52 1017.75 1018.04 1018.39 1018.78 1019.20 1019.64
1030.16 1029.80 1029.44 1029.10 1028.77 1028.45 1028.14 1027.81 1027.47 1027.10 1026.69 1026.26 1025.79 1025.31 1024.81 1024.31 1023.82 1023.33 1022.85 1022.37 1021.90 1021.42 1020.95 1020.47 1019.98 1019.49 1019.01 1018.55 1018.10 1017.70 1017.35 1017.06 1016.84 1016.69 1016.63 1016.66 1016.77 1016.96 1017.22 1017.55 1017.93 1018.34 1018.79
1030.08 1029.78 1029.47 1029.15 1028.83 1028.51 1028.19 1027.85 1027.50 1027.12 1026.72 1026.29 1025.83 1025.35 1024.85 1024.34 1023.83 1023.32 1022.80 1022.29 1021.78 1021.27 1020.76 1020.24 1019.72 1019.21 1018.69 1018.19 1017.71 1017.26 1016.85 1016.51 1016.23 1016.03 1015.92 1015.89 1015.96 1016.12 1016.35 1016.65 1017.01 1017.41 1017.84
1029.95 1029.71 1029.45 1029.17 1028.87 1028.56 1028.23 1027.88 1027.52 1027.14 1026.72 1026.29 1025.82 1025.33 1024.82 1024.29 1023.75 1023.20 1022.64 1022.08 1021.53 1020.98 1020.43 1019.88 1019.34 1018.80 1018.26 1017.73 1017.21 1016.73 1016.29 1015.90 1015.58 1015.34 1015.19 1015.13 1015.16 1015.28 1015.49 1015.76 1016.09 1016.46 1016.87
1029.83 1029.66 1029.45 1029.20 1028.92 1028.61 1028.27 1027.91 1027.53 1027.12 1026.68 1026.22 1025.73 1025.21 1024.67 1024.10 1023.52 1022.92 1022.32 1021.72 1021.12 1020.53 1019.95 1019.38 1018.82 1018.26 1017.70 1017.16 1016.63 1016.13 1015.67 1015.26 1014.92 1014.66 1014.49 1014.41 1014.42 1014.52 1014.70 1014.94 1015.24 1015.58 1015.95
1029.77 1029.66 1029.49 1029.27 1028.99 1028.67 1028.31 1027.92 1027.50 1027.05 1026.57 1026.07 1025.54 1024.98 1024.39 1023.77 1023.14 1022.49 1021.84 1021.20 1020.57 1019.95 1019.35 1018.76 1018.18 1017.62 1017.07 1016.53 1016.00 1015.50 1015.04 1014.63 1014.28 1014.02 1013.84 1013.75 1013.75 1013.84 1014.00 1014.22 1014.49 1014.79 1015.12
1029.82 1029.74 1029.59 1029.36 1029.07 1028.72 1028.33 1027.89 1027.42 1026.92 1026.39 1025.84 1025.25 1024.64 1024.00 1023.33 1022.65 1021.96 1021.27 1020.59 1019.93 1019.29 1018.67 1018.08 1017.51 1016.95 1016.40 1015.87 1015.36 1014.87 1014.41 1014.01 1013.67 1013.41 1013.23 1013.14 1013.14 1013.22 1013.37 1013.57 1013.82 1014.09 1014.38
1029.96 1029.89 1029.73 1029.48 1029.16 1028.76 1028.32 1027.82 1027.30 1026.74 1026.16 1025.55 1024.91 1024.25 1023.56 1022.85 1022.12 1021.40 1020.68 1019.97 1019.29 1018.64 1018.03 1017.43 1016.86 1016.31 1015.77 1015.25 1014.74 1014.25 1013.80 1013.40 1013.06 1012.80 1012.63 1012.54 1012.53 1012.60 1012.74 1012.93 1013.16 1013.40 1013.67
1030.17 1030.08 1029.88 1029.59 1029.22 1028.77 1028.27 1027.72 1027.14 1026.54 1025.91 1025.26 1024.58 1023.88 1023.16 1022.42 1021.67 1020.92 1020.18 1019.46 1018.77 1018.12 1017.49 1016.90 1016.33 1015.77 1015.23 1014.69 1014.17 1013.67 1013.20 1012.79 1012.44 1012.16 1011.97 1011.86 1011.84 1011.90 1012.03 1012.20 1012.41 1012.65 1012.90
1030.38 1030.25 1030.00 1029.66 1029.24 1028.74 1028.19 1027.60 1026.99 1026.35 1025.70 1025.02 1024.33 1023.61 1022.87 1022.12 1021.36 1020.60 1019.86 1019.14 1018.44 1017.78 1017.15 1016.54 1015.95 1015.37 1014.80 1014.23 1013.67 1013.13 1012.62 1012.16 1011.76 1011.44 1011.21 1011.07 1011.02 1011.05 1011.16 1011.31 1011.51 1011.74 1011.99
1030.54 1030.36 1030.06 1029.67 1029.20 1028.67 1028.09 1027.48 1026.86 1026.21 1025.56 1024.89 1024.20 1023.49 1022.76 1022.02 1021.27 1020.52 1019.77 1019.05 1018.35 1017.67 1017.01 1016.38 1015.75 1015.12 1014.50 1013.87 1013.25 1012.64 1012.06 1011.52 1011.05 1010.66 1010.36 1010.16 1010.05 1010.04 1010.10 1010.23 1010.41 1010.64 1010.89
1030.60 1030.37 1030.03 1029.61 1029.11 1028.57 1027.99 1027.39 1026.77 1026.15 1025.52 1024.88 1024.22 1023.54 1022.84 1022.12 1021.39 1020.65 1019.91 1019.19 1018.48 1017.78 1017.09 1016.41 1015.73 1015.04 1014.34 1013.63 1012.92 1012.22 1011.55 1010.92 1010.36 1009.87 1009.48 1009.19 1009.00 1008.91 1008.91 1009.00 1009.15 1009.36 1009.62
Thickness
5703 5702 5700 5699 5698 5697 5696 5694 5692 5690 5688 5687 5685 5684 5682 5682 5682 5681 5681 5680 5680 5680 5680 5680 5680 5679 5679 5678 5678 5677 5675 5675 5676 5675 5672 5671 5671 5669 5667 5665 5665 5664 5663
5699 5698 5696 5695 5694 5693 5691 5689 5688 5686 5684 5682 5681 5679 5677 5676 5675 5674 5674 5674 5674 5674 5674 5675 5674 5673 5671 5671 5671 5669 5669 5668 5669 5668 5667 5664 5663 5661 5660 5658 5657 5657 5656
5697 5695 5692 5691 5690 5688 5687 5686 5685 5683 5680 5677 5676 5673 5672 5671 5670 5669 5669 5668 5668 5668 5668 5668 5667 5666 5667 5665 5664 5664 5662 5662 5662 5662 5661 5658 5657 5654 5653 5652 5651 5649 5648
5695 5692 5690 5687 5686 5684 5684 5683 5681 5679 5676 5674 5671 5670 5667 5665 5665 5664 5663 5663 5662 5662 5662 5662 5661 5661 5660 5659 5659 5658 5657 5656 5656 5655 5654 5654 5653 5650 5647 5646 5645 5643 5642
5692 5689 5687 5685 5683 5681 5680 5679 5677 5674 5672 5670 5667 5665 5663 5662 5660 5659 5658 5658 5657 5657 5656 5656 5655 5655 5653 5653 5652 5651 5651 5651 5650 5648 5648 5647 5646 5648 5645 5641 5639 5638 5636
5688 5686 5684 5682 5679 5677 5675 5673 5671 5668 5666 5665 5663 5661 5659 5656 5655 5653 5652 5652 5652 5651 5651 5650 5650 5648 5647 5646 5645 5645 5644 5644 5643 5643 5642 5642 5641 5639 5638 5636 5634 5632 5630
5684 5682 5680 5677 5674 5672 5670 5668 5666 5663 5661 5660 5658 5657 5654 5652 5650 5649 5647 5647 5646 5645 5645 5644 5643 5642 5640 5639 5639 5638 5638 5637 5636 5636 5635 5635 5634 5634 5632 5631 5629 5626 5625
5680 5677 5675 5673 5670 5668 5665 5664 5661 5658 5656 5654 5653 5651 5648 5646 5645 5643 5643 5641 5641 5640 5639 5638 5637 5635 5634 5633 5632 5632 5630 5631 5630 5629 5628 5627 5627 5626 5626 5624 5622 5622 5621
5676 5674 5672 5669 5665 5663 5661 5659 5656 5653 5652 5650 5647 5645 5642 5640 5639 5638 5637 5636 5635 5634 5633 5632 5630 5628 5627 5627 5626 5625 5625 5624 5624 5623 5622 5621 5620 5619 5618 5617 5616 5616 5616
5672 5669 5667 5664 5661 5658 5656 5654 5651 5648 5646 5644 5642 5639 5636 5634 5633 5632 5630 5630 5629 5627 5626 5625 5624 5623 5622 5621 5619 5619 5618 5618 5616 5615 5615 5614 5614 5612 5611 5610 5609 5609 5609
5667 5665 5662 5659 5656 5653 5650 5648 5646 5643 5640 5638 5636 5633 5631 5629 5627 5626 5625 5624 5623 5621 5620 5619 5618 5617 5616 5615 5614 5613 5612 5612 5611 5610 5609 5608 5607 5606 5604 5603 5602 5602 5601
5662 5660 5657 5653 5649 5646 5644 5642 5640 5637 5634 5632 5629 5627 5625 5622 5621 5619 5619 5617 5617 5615 5614 5614 5612 5611 5610 5609 5609 5607 5606 5606 5605 5604 5603 5602 5600 5599 5598 5596 5596 5595 5595
5656 5654 5650 5646 5643 5640 5637 5635 5632 5630 5627 5625 5622 5620 5618 5616 5614 5613 5612 5611 5610 5609 5608 5607 5606 5605 5604 5603 5602 5601 5601 5600 5599 5598 5597 5596 5595 5593 5592 5590 5590 5589 5588
5650 5647 5643 5640 5637 5634 5631 5628 5625 5623 5620 5618 5615 5613 5611 5610 5608 5607 5605 5604 5604 5603 5602 5601 5600 5599 5598 5597 5596 5595 5594 5594 5593 5591 5590 5589 5588 5587 5586 5584 5584 5582 5581
5644 5641 5637 5634 5631 5628 5624 5621 5618 5616 5613 5611 5608 5607 5605 5603 5601 5600 5598 5597 5596 5596 5595 5594 5593 5592 5591 5590 5589 5588 5587 5587 5586 5585 5583 5582 5580 5578 5577 5577 5576 5575 5575
5638 5635 5632 5628 5625 5622 5618 5614 5611 5609 5607 5605 5602 5600 5598 5596 5594 5593 5591 5590 5589 5588 5588 5587 5586 5585 5584 5581 5578 5579 5580 5580 5579 5578 5578 5576 5573 5571 5568 5567 5567 5567 5568
5632 5628 5625 5622 5619 5616 5612 5608 5605 5602 5599 5598 5596 5593 5591 5589 5588 5586 5585 5583 5582 5582 5581 5580 5579 5578 5577 5573 5571 5570 5571 5572 5572 5572 5571 5570 5569 5565 5565 5562 5560 5560 5559
5625 5622 5619 5616 5613 5609 5605 5602 5599 5596 5593 5591 5588 5586 5584 5582 5581 5579 5578 5576 5576 5575 5574 5573 5572 5571 5570 5566 5565 5563 5564 5565 5565 5565 5564 5564 5562 5560 5558 5558 5557 5557 5556
5619 5616 5612 5609 5606 5602 5598 5595 5592 5588 5586 5583 5581 5579 5577 5575 5573 5572 5571 5570 5570 5569 5568 5567 5565 5564 5563 5560 5558 5556 5558 5559 5559 5558 5557 5557 5556 5553 5550 5550 5551 5551 5550
5612 5608 5605 5602 5598 5594 5590 5587 5584 5581 5579 5576 5574 5572 5570 5568 5566 5565 5564 5563 5562 5562 5561 5561 5560 5559 5558 5555 5552 5549 5552 5552 5552 5551 5551 5548 5547 5545 5542 5543 5544 5544 5544
5602 5599 5596 5593 5589 5586 5582 5580 5578 5574 5571 5568 5566 5564 5562 5561 5559 5558 5557 5555 5554 5554 5554 5554 5553 5552 5551 5549 5546 5543 5544 5545 5545 5545 5544 5543 5539 5537 5536 5535 5537 5537 5536
5593 5590 5587 5584 5581 5578 5575 5573 5569 5566 5563 5560 5558 5556 5554 5552 5551 5549 5548 5547 5547 5547 5547 5547 5547 5546 5545 5542 5540 5537 5536 5536 5537 5537 5538 5537 5533 5530 5529 5529 5529 5528 5527
5585 5581 5578 5576 5573 5569 5566 5564 5561 5558 5555 5553 5551 5549 5547 5544 5543 5541 5540 5539 5539 5539 5540 5539 5540 5539 5538 5536 5533 5531 5529 5527 5528 5529 5529 5527 5524 5523 5523 5522 5521 5520 5521
5576 5572 5570 5567 5564 5561 5558 5555 5552 5549 5547 5546 5544 5542 5540 5537 5535 5533 5532 5531 5531 5530 5531 5531 5531 5531 5530 5529 5527 5525 5523 5521 5520 5521 5520 5518 5517 5515 5515 5515 5515 5515 5516
5567 5564 5561 5559 5556 5552 5549 5546 5543 5541 5540 5538 5536 5534 5532 5529 5527 5525 5523 5522 5521 5521 5520 5522 5522 5522 5522 5521 5517 5516 5516 5516 5514 5512 5512 5512 5512 5512 5512 5511 5511 5510 5510
5559 5556 5553 5550 5547 5543 5540 5537 5535 5533 5532 5531 5528 5526 5523 5520 5518 5516 5515 5512 5511 5510 5509 5509 5510 5512 5510 5509 5508 5506 5506 5505 5504 5503 5506 5506 5507 5507 5507 5506 5505 5505 5505